| time (UTC) | temp C | wind direction | speed KPH | gust KPH | rain 1hr cm | rain 24hr cm | rain mn cm | humidity % | barometer mb |
| 20260902235010 | 26 | 98 | 0.0 | 0.0 | 0.00 | 0.86 | 0.86 | 91 | 1015.5 |
| 20260902234510 | 26 | 107 | 0.0 | 1.6 | 0.00 | 0.86 | 0.86 | 91 | 1015.4 |
| 20260902234012 | 26 | 94 | 0.0 | 1.6 | 0.00 | 0.86 | 0.86 | 91 | 1015.4 |
| 20260902233509 | 26 | 229 | 0.0 | 1.6 | 0.00 | 0.86 | 0.86 | 91 | 1015.3 |
| 20260902233009 | 26 | 229 | 0.0 | 1.6 | 0.00 | 0.86 | 0.86 | 90 | 1015.4 |
| 20260902232509 | 26 | 229 | 0.0 | 1.6 | 0.00 | 0.86 | 0.86 | 90 | 1015.4 |
| 20260902232008 | 26 | 262 | 0.0 | 1.6 | 0.00 | 0.86 | 0.86 | 90 | 1015.5 |
| 20260902231511 | 26 | 274 | 0.0 | 1.6 | 0.00 | 0.86 | 0.86 | 90 | 1015.3 |
| 20260902231006 | 26 | 230 | 0.0 | 1.6 | 0.00 | 0.86 | 0.86 | 91 | 1015.3 |
| 20260902230506 | 26 | 230 | 0.0 | 1.6 | 0.00 | 0.86 | 0.86 | 91 | 1015.2 |
| 20260902230006 | 26 | 230 | 0.0 | 1.6 | 0.00 | 0.86 | 0.86 | 91 | 1015.3 |
| 20260902225505 | 26 | 230 | 0.0 | 1.6 | 0.00 | 0.86 | 0.86 | 91 | 1015.4 |
| 20260902225005 | 26 | 338 | 0.0 | 1.6 | 0.00 | 0.86 | 0.86 | 91 | 1015.5 |
| 20260902224504 | 26 | 311 | 0.0 | 0.0 | 0.00 | 0.86 | 0.86 | 91 | 1015.5 |
| 20260902224003 | 26 | 311 | 0.0 | 3.2 | 0.00 | 0.86 | 0.86 | 91 | 1015.4 |
| 20260902223501 | 26 | 311 | 0.0 | 3.2 | 0.00 | 0.86 | 0.86 | 90 | 1015.5 |
| 20260902223001 | 26 | 116 | 0.0 | 3.2 | 0.00 | 0.86 | 0.86 | 91 | 1015.5 |
| 20260902222559 | 26 | 214 | 0.0 | 1.6 | 0.00 | 0.86 | 0.86 | 91 | 1015.5 |
| 20260902222505 | 26 | 303 | 0.0 | 1.6 | 0.00 | 0.86 | 0.86 | 91 | 1015.6 |
| 20260902222103 | 26 | 303 | 0.0 | 1.6 | 0.00 | 0.86 | 0.86 | 91 | 1015.5 |
| 20260902221607 | 26 | 303 | 0.0 | 3.2 | 0.05 | 0.86 | 0.86 | 90 | 1015.4 |
| 20260902221059 | 26 | 198 | 0.0 | 6.4 | 0.10 | 0.86 | 0.86 | 91 | 1015.3 |
| 20260902220557 | 26 | 77 | 0.0 | 6.4 | 0.10 | 0.86 | 0.86 | 91 | 1015.3 |
| 20260902220101 | 26 | 204 | 0.0 | 3.2 | 0.10 | 0.86 | 0.86 | 91 | 1015.5 |
| 20260902215556 | 26 | 290 | 0.0 | 6.4 | 0.10 | 0.86 | 0.86 | 91 | 1015.4 |
| 20260902215055 | 26 | 338 | 0.0 | 6.4 | 0.10 | 0.86 | 0.86 | 91 | 1015.6 |
| 20260902214603 | 27 | 309 | 0.0 | 1.6 | 0.10 | 0.86 | 0.86 | 93 | 1015.7 |
| 20260902214055 | 27 | 308 | 0.0 | 1.6 | 0.10 | 0.86 | 0.86 | 93 | 1015.7 |
| 20260902213557 | 27 | 307 | 0.0 | 1.6 | 0.10 | 0.86 | 0.86 | 93 | 1015.6 |
| 20260902213052 | 27 | 93 | 0.0 | 0.0 | 0.10 | 0.86 | 0.86 | 93 | 1015.6 |
| 20260902212552 | 26 | 93 | 0.0 | 3.2 | 0.10 | 0.86 | 0.86 | 92 | 1015.7 |
| 20260902212051 | 26 | 94 | 0.0 | 3.2 | 0.10 | 0.86 | 0.86 | 92 | 1015.7 |
| 20260902211607 | 27 | 303 | 0.0 | 1.6 | 0.08 | 0.81 | 0.81 | 92 | 1015.6 |
| 20260902211050 | 27 | 302 | 0.0 | 0.0 | 0.03 | 0.76 | 0.76 | 93 | 1015.7 |
| 20260902210552 | 27 | 303 | 0.0 | 1.6 | 0.03 | 0.76 | 0.76 | 93 | 1015.6 |
| 20260902210112 | 27 | 302 | 0.0 | 1.6 | 0.03 | 0.76 | 0.76 | 93 | 1015.5 |
| 20260902205548 | 27 | 302 | 0.0 | 0.0 | 0.03 | 0.76 | 0.76 | 93 | 1015.5 |
| 20260902205048 | 27 | 302 | 0.0 | 0.0 | 0.03 | 0.76 | 0.76 | 93 | 1015.6 |
| 20260902204547 | 26 | 302 | 0.0 | 0.0 | 0.03 | 0.76 | 0.76 | 92 | 1015.5 |
| 20260902204046 | 26 | 303 | 0.0 | 3.2 | 0.03 | 0.76 | 0.76 | 92 | 1015.5 |
| 20260902203544 | 26 | 303 | 0.0 | 3.2 | 0.03 | 0.76 | 0.76 | 92 | 1015.6 |
| 20260902203044 | 26 | 316 | 0.0 | 1.6 | 0.03 | 0.76 | 0.76 | 92 | 1015.5 |
| 20260902202543 | 26 | 133 | 0.0 | 0.0 | 0.03 | 0.76 | 0.76 | 92 | 1015.6 |
| 20260902202043 | 26 | 133 | 0.0 | 4.8 | 0.18 | 0.76 | 0.76 | 92 | 1015.6 |
| 20260902201541 | 26 | 42 | 0.0 | 4.8 | 0.69 | 0.71 | 0.71 | 91 | 1015.8 |
| 20260902201042 | 27 | 322 | 0.0 | 0.0 | 0.71 | 0.71 | 0.71 | 92 | 1015.7 |
| 20260902200544 | 27 | 322 | 0.0 | 1.6 | 0.71 | 0.71 | 0.71 | 91 | 1015.7 |
| 20260902200040 | 27 | 311 | 0.0 | 1.6 | 0.71 | 0.71 | 0.71 | 91 | 1015.7 |
| 20260902195540 | 27 | 304 | 0.0 | 1.6 | 0.71 | 0.71 | 0.71 | 92 | 1015.7 |
| 20260902195039 | 27 | 343 | 0.0 | 3.2 | 0.71 | 0.71 | 0.71 | 92 | 1015.6 |
| 20260902194538 | 27 | 309 | 0.0 | 3.2 | 0.71 | 0.71 | 0.71 | 92 | 1015.7 |
| 20260902194041 | 27 | 72 | 0.0 | 1.6 | 0.71 | 0.71 | 0.71 | 92 | 1015.6 |
| 20260902193537 | 26 | 249 | 0.0 | 3.2 | 0.71 | 0.71 | 0.71 | 91 | 1015.8 |
| 20260902193036 | 26 | 77 | 0.0 | 3.2 | 0.71 | 0.71 | 0.71 | 90 | 1015.8 |
| 20260902192537 | 27 | 91 | 0.0 | 4.8 | 0.71 | 0.71 | 0.71 | 88 | 1015.8 |
| 20260902192034 | 27 | 300 | 0.0 | 4.8 | 0.51 | 0.51 | 0.51 | 87 | 1016.0 |
| 20260902191537 | 28 | 315 | 0.0 | 4.8 | 0.03 | 0.03 | 0.03 | 86 | 1015.9 |
| 20260902191032 | 28 | 319 | 0.0 | 3.2 | 0.03 | 0.03 | 0.03 | 86 | 1015.7 |
| 20260902190532 | 28 | 6 | 0.0 | 3.2 | 0.03 | 0.03 | 0.03 | 86 | 1015.7 |
| 20260902190037 | 28 | 4 | 0.0 | 3.2 | 0.03 | 0.03 | 0.03 | 87 | 1015.7 |
| 20260902185533 | 28 | 107 | 0.0 | 3.2 | 0.03 | 0.03 | 0.03 | 87 | 1015.9 |
| 20260902185031 | 28 | 291 | 0.0 | 3.2 | 0.03 | 0.03 | 0.03 | 87 | 1016.1 |
| 20260902184532 | 28 | 310 | 0.0 | 3.2 | 0.03 | 0.03 | 0.03 | 86 | 1016.0 |
| 20260902184032 | 29 | 155 | 0.0 | 6.4 | 0.03 | 0.03 | 0.03 | 84 | 1016.3 |
| 20260902183630 | 30 | 152 | 0.0 | 6.4 | 0.00 | 0.00 | 0.00 | 82 | 1016.2 |
| 20260902183029 | 31 | 285 | 0.0 | 9.7 | 0.00 | 0.00 | 0.00 | 81 | 1016.1 |
| 20260902182532 | 31 | 51 | 1.6 | 9.7 | 0.00 | 0.00 | 0.00 | 81 | 1016.0 |
| 20260902182027 | 31 | 154 | 0.0 | 4.8 | 0.00 | 0.00 | 0.00 | 82 | 1016.1 |
| 20260902181527 | 30 | 240 | 0.0 | 3.2 | 0.00 | 0.00 | 0.00 | 82 | 1016.2 |
| 20260902181033 | 30 | 27 | 0.0 | 3.2 | 0.00 | 0.00 | 0.00 | 83 | 1016.1 |
| 20260902180526 | 30 | 269 | 0.0 | 4.8 | 0.00 | 0.00 | 0.00 | 83 | 1016.3 |
| 20260902180026 | 30 | 304 | 0.0 | 6.4 | 0.00 | 0.00 | 0.00 | 82 | 1016.4 |
| 20260902175529 | 30 | 326 | 0.0 | 8.0 | 0.00 | 0.00 | 0.00 | 83 | 1016.4 |
| 20260902175024 | 30 | 206 | 0.0 | 8.0 | 0.00 | 0.00 | 0.00 | 83 | 1016.3 |
| 20260902174523 | 30 | 227 | 0.0 | 3.2 | 0.00 | 0.00 | 0.00 | 82 | 1016.4 |
| 20260902174023 | 30 | 323 | 0.0 | 4.8 | 0.00 | 0.00 | 0.00 | 82 | 1016.5 |
| 20260902173521 | 30 | 197 | 0.0 | 6.4 | 0.00 | 0.00 | 0.00 | 82 | 1016.5 |
| 20260902173021 | 30 | 212 | 0.0 | 6.4 | 0.00 | 0.00 | 0.00 | 81 | 1016.3 |
| 20260902172519 | 31 | 88 | 0.0 | 6.4 | 0.00 | 0.00 | 0.00 | 79 | 1016.4 |
| 20260902172024 | 31 | 337 | 0.0 | 6.4 | 0.00 | 0.00 | 0.00 | 78 | 1016.4 |
| 20260902171518 | 32 | 198 | 0.0 | 6.4 | 0.00 | 0.00 | 0.00 | 75 | 1016.3 |
| 20260902171020 | 33 | 86 | 0.0 | 6.4 | 0.00 | 0.00 | 0.00 | 75 | 1016.4 |
| 20260902170516 | 33 | 326 | 0.0 | 6.4 | 0.00 | 0.00 | 0.00 | 73 | 1016.4 |
| 20260902170117 | 33 | 86 | 0.0 | 8.0 | 0.00 | 0.00 | 0.00 | 72 | 1016.4 |
| 20260902165514 | 33 | 221 | 0.0 | 8.0 | 0.00 | 0.00 | 0.00 | 75 | 1016.5 |
| 20260902165012 | 33 | 106 | 1.6 | 11.3 | 0.00 | 0.00 | 0.00 | 76 | 1016.6 |
| 20260902164509 | 33 | 316 | 0.0 | 6.4 | 0.00 | 0.00 | 0.00 | 76 | 1016.6 |
| 20260902164008 | 32 | 315 | 0.0 | 6.4 | 0.00 | 0.00 | 0.00 | 79 | 1016.7 |
| 20260902163507 | 32 | 97 | 0.0 | 4.8 | 0.00 | 0.00 | 0.00 | 79 | 1016.7 |
| 20260902163005 | 31 | 274 | 0.0 | 4.8 | 0.00 | 0.00 | 0.00 | 81 | 1016.8 |
| 20260902162504 | 30 | 174 | 0.0 | 9.7 | 0.00 | 0.00 | 0.00 | 83 | 1017.1 |
| 20260902162004 | 30 | 303 | 1.6 | 9.7 | 0.00 | 0.00 | 0.00 | 81 | 1017.0 |
| 20260902161504 | 31 | 300 | 1.6 | 9.7 | 0.00 | 0.00 | 0.00 | 80 | 1017.0 |
| 20260902161002 | 31 | 259 | 0.0 | 11.3 | 0.00 | 0.00 | 0.00 | 82 | 1017.0 |
| 20260902160502 | 31 | 213 | 0.0 | 11.3 | 0.00 | 0.00 | 0.00 | 80 | 1017.1 |
| 20260902160201 | 31 | 127 | 0.0 | 6.4 | 0.00 | 0.00 | 0.00 | 80 | 1017.1 |
| 20260902155600 | 31 | 276 | 0.0 | 4.8 | 0.00 | 0.03 | 0.00 | 82 | 1017.2 |
| 20260902155059 | 31 | 80 | 0.0 | 3.2 | 0.00 | 0.03 | 0.00 | 81 | 1017.3 |
| 20260902154559 | 31 | 321 | 0.0 | 1.6 | 0.00 | 0.03 | 0.00 | 78 | 1017.2 |
| 20260902154059 | 31 | 244 | 0.0 | 4.8 | 0.00 | 0.03 | 0.00 | 80 | 1017.3 |
| 20260902153557 | 31 | 300 | 0.0 | 6.4 | 0.00 | 0.03 | 0.00 | 78 | 1017.4 |
| 20260902153056 | 32 | 170 | 0.0 | 6.4 | 0.00 | 0.03 | 0.00 | 78 | 1017.5 |
| 20260902152554 | 31 | 79 | 0.0 | 4.8 | 0.00 | 0.03 | 0.00 | 79 | 1017.4 |
| 20260902152053 | 31 | 129 | 0.0 | 4.8 | 0.00 | 0.03 | 0.00 | 78 | 1017.3 |
| 20260902151558 | 31 | 289 | 0.0 | 4.8 | 0.00 | 0.03 | 0.00 | 79 | 1017.4 |
| 20260902151050 | 30 | 243 | 0.0 | 4.8 | 0.00 | 0.03 | 0.00 | 82 | 1017.5 |
| 20260902150549 | 30 | 176 | 0.0 | 3.2 | 0.00 | 0.03 | 0.00 | 80 | 1017.5 |
| 20260902150048 | 31 | 311 | 0.0 | 3.2 | 0.00 | 0.03 | 0.00 | 80 | 1017.4 |
| 20260902145546 | 31 | 305 | 0.0 | 4.8 | 0.00 | 0.03 | 0.00 | 81 | 1017.5 |
| 20260902145045 | 30 | 131 | 0.0 | 3.2 | 0.00 | 0.03 | 0.00 | 82 | 1017.5 |
| 20260902144558 | 30 | 316 | 0.0 | 4.8 | 0.00 | 0.03 | 0.00 | 81 | 1017.4 |
| 20260902144046 | 30 | 197 | 0.0 | 4.8 | 0.00 | 0.03 | 0.00 | 82 | 1017.3 |
| 20260902143543 | 30 | 122 | 0.0 | 4.8 | 0.00 | 0.03 | 0.00 | 82 | 1017.4 |
| 20260902143040 | 30 | 8 | 0.0 | 4.8 | 0.00 | 0.03 | 0.00 | 83 | 1017.3 |
| 20260902142639 | 30 | 302 | 0.0 | 4.8 | 0.00 | 0.03 | 0.00 | 84 | 1017.3 |
| 20260902142037 | 30 | 323 | 0.0 | 0.0 | 0.00 | 0.03 | 0.00 | 83 | 1017.2 |
| 20260902141539 | 30 | 275 | 0.0 | 4.8 | 0.00 | 0.03 | 0.00 | 84 | 1017.1 |
| 20260902141037 | 30 | 146 | 0.0 | 4.8 | 0.00 | 0.03 | 0.00 | 84 | 1017.1 |
| 20260902140532 | 29 | 250 | 0.0 | 3.2 | 0.00 | 0.03 | 0.00 | 86 | 1017.1 |
| 20260902140030 | 28 | 334 | 0.0 | 1.6 | 0.00 | 0.03 | 0.00 | 87 | 1017.2 |
| 20260902135528 | 28 | 304 | 0.0 | 4.8 | 0.00 | 0.03 | 0.00 | 86 | 1017.2 |
| 20260902135028 | 28 | 324 | 0.0 | 4.8 | 0.00 | 0.03 | 0.00 | 86 | 1017.2 |
| 20260902134532 | 28 | 36 | 0.0 | 4.8 | 0.00 | 0.03 | 0.00 | 87 | 1017.3 |
| 20260902134025 | 28 | 344 | 0.0 | 3.2 | 0.00 | 0.03 | 0.00 | 88 | 1017.2 |
| 20260902133524 | 27 | 1 | 0.0 | 3.2 | 0.00 | 0.03 | 0.00 | 88 | 1017.2 |
| 20260902133024 | 27 | 1 | 0.0 | 3.2 | 0.00 | 0.03 | 0.00 | 88 | 1017.1 |
| 20260902132519 | 27 | 290 | 0.0 | 3.2 | 0.00 | 0.03 | 0.00 | 89 | 1017.2 |
| 20260902132018 | 27 | 309 | 0.0 | 3.2 | 0.00 | 0.03 | 0.00 | 89 | 1017.2 |
| 20260902131516 | 27 | 164 | 0.0 | 6.4 | 0.00 | 0.03 | 0.00 | 90 | 1017.1 |
| 20260902131014 | 27 | 14 | 0.0 | 6.4 | 0.00 | 0.03 | 0.00 | 91 | 1017.1 |
| 20260902130512 | 27 | 104 | 0.0 | 4.8 | 0.00 | 0.03 | 0.00 | 92 | 1017.0 |
| 20260902130010 | 27 | 104 | 0.0 | 4.8 | 0.00 | 0.03 | 0.00 | 93 | 1017.0 |
| 20260902125509 | 26 | 321 | 0.0 | 1.6 | 0.00 | 0.03 | 0.00 | 94 | 1017.0 |
| 20260902125008 | 26 | 334 | 0.0 | 1.6 | 0.00 | 0.03 | 0.00 | 94 | 1017.0 |
| 20260902124507 | 26 | 284 | 0.0 | 3.2 | 0.00 | 0.03 | 0.00 | 94 | 1017.0 |
| 20260902124005 | 26 | 153 | 0.0 | 1.6 | 0.00 | 0.03 | 0.00 | 95 | 1017.0 |
| 20260902123503 | 26 | 160 | 0.0 | 0.0 | 0.00 | 0.03 | 0.00 | 95 | 1017.1 |
| 20260902123001 | 26 | 158 | 0.0 | 1.6 | 0.00 | 0.03 | 0.00 | 95 | 1017.0 |
| 20260902122600 | 26 | 108 | 0.0 | 1.6 | 0.00 | 0.03 | 0.00 | 95 | 1017.0 |
| 20260902122059 | 26 | 302 | 0.0 | 1.6 | 0.00 | 0.03 | 0.00 | 95 | 1016.9 |
| 20260902121557 | 26 | 302 | 0.0 | 1.6 | 0.00 | 0.03 | 0.00 | 95 | 1017.0 |
| 20260902121056 | 26 | 323 | 0.0 | 1.6 | 0.00 | 0.03 | 0.00 | 95 | 1017.0 |
| 20260902120555 | 25 | 318 | 0.0 | 1.6 | 0.00 | 0.03 | 0.00 | 95 | 1016.9 |
| 20260902120054 | 25 | 69 | 0.0 | 1.6 | 0.00 | 0.03 | 0.00 | 95 | 1016.8 |
| 20260902115554 | 25 | 322 | 0.0 | 0.0 | 0.00 | 0.03 | 0.00 | 95 | 1016.8 |
| 20260902115051 | 25 | 322 | 0.0 | 1.6 | 0.00 | 0.03 | 0.00 | 95 | 1016.8 |
| 20260902114552 | 25 | 322 | 0.0 | 1.6 | 0.00 | 0.03 | 0.00 | 95 | 1016.6 |
| 20260902114048 | 25 | 323 | 0.0 | 0.0 | 0.00 | 0.03 | 0.00 | 95 | 1016.6 |
| 20260902113549 | 25 | 323 | 0.0 | 0.0 | 0.00 | 0.03 | 0.00 | 95 | 1016.6 |
| 20260902113052 | 25 | 323 | 0.0 | 0.0 | 0.00 | 0.03 | 0.00 | 95 | 1016.6 |
| 20260902112547 | 25 | 323 | 0.0 | 0.0 | 0.00 | 0.03 | 0.00 | 95 | 1016.6 |
| 20260902112046 | 25 | 322 | 0.0 | 0.0 | 0.00 | 0.03 | 0.00 | 95 | 1016.6 |
| 20260902111548 | 25 | 322 | 0.0 | 0.0 | 0.00 | 0.03 | 0.00 | 95 | 1016.6 |
| 20260902111046 | 25 | 322 | 0.0 | 0.0 | 0.00 | 0.03 | 0.00 | 95 | 1016.6 |
| 20260902110545 | 25 | 322 | 0.0 | 0.0 | 0.00 | 0.03 | 0.00 | 95 | 1016.5 |
| 20260902110044 | 25 | 322 | 0.0 | 0.0 | 0.00 | 0.03 | 0.00 | 95 | 1016.5 |
| 20260902105544 | 25 | 322 | 0.0 | 0.0 | 0.00 | 0.03 | 0.00 | 95 | 1016.4 |
| 20260902105042 | 25 | 322 | 0.0 | 0.0 | 0.00 | 0.03 | 0.00 | 95 | 1016.5 |
| 20260902104543 | 25 | 322 | 0.0 | 0.0 | 0.00 | 0.03 | 0.00 | 95 | 1016.5 |
| 20260902104040 | 25 | 322 | 0.0 | 0.0 | 0.00 | 0.03 | 0.00 | 95 | 1016.4 |
| 20260902103538 | 25 | 322 | 0.0 | 0.0 | 0.00 | 0.03 | 0.00 | 95 | 1016.4 |
| 20260902103039 | 25 | 322 | 0.0 | 0.0 | 0.00 | 0.03 | 0.00 | 95 | 1016.4 |
| 20260902102537 | 25 | 322 | 0.0 | 0.0 | 0.00 | 0.03 | 0.00 | 95 | 1016.4 |
| 20260902102036 | 25 | 322 | 0.0 | 0.0 | 0.00 | 0.03 | 0.00 | 95 | 1016.3 |
| 20260902101537 | 25 | 322 | 0.0 | 0.0 | 0.00 | 0.03 | 0.00 | 95 | 1016.3 |
| 20260902101035 | 25 | 322 | 0.0 | 0.0 | 0.00 | 0.03 | 0.00 | 95 | 1016.2 |
| 20260902100534 | 25 | 322 | 0.0 | 0.0 | 0.00 | 0.03 | 0.00 | 95 | 1016.2 |
| 20260902100134 | 25 | 322 | 0.0 | 0.0 | 0.00 | 0.03 | 0.00 | 95 | 1016.1 |
| 20260902095533 | 25 | 322 | 0.0 | 0.0 | 0.00 | 0.03 | 0.00 | 94 | 1016.0 |
| 20260902095032 | 25 | 322 | 0.0 | 0.0 | 0.00 | 0.03 | 0.00 | 94 | 1015.9 |
| 20260902094533 | 25 | 322 | 0.0 | 0.0 | 0.00 | 0.03 | 0.00 | 94 | 1015.9 |
| 20260902094031 | 25 | 322 | 0.0 | 0.0 | 0.00 | 0.03 | 0.00 | 94 | 1015.8 |
| 20260902093536 | 25 | 322 | 0.0 | 0.0 | 0.00 | 0.03 | 0.00 | 94 | 1015.7 |
| 20260902093035 | 25 | 322 | 0.0 | 0.0 | 0.00 | 0.03 | 0.00 | 94 | 1015.7 |
| 20260902092529 | 25 | 322 | 0.0 | 0.0 | 0.00 | 0.03 | 0.00 | 94 | 1015.7 |
| 20260902092029 | 25 | 322 | 0.0 | 0.0 | 0.00 | 0.03 | 0.00 | 94 | 1015.7 |
| 20260902091527 | 25 | 322 | 0.0 | 0.0 | 0.00 | 0.03 | 0.00 | 94 | 1015.7 |
| 20260902091025 | 25 | 322 | 0.0 | 0.0 | 0.00 | 0.03 | 0.00 | 94 | 1015.7 |
| 20260902090526 | 25 | 322 | 0.0 | 0.0 | 0.00 | 0.03 | 0.00 | 94 | 1015.7 |
| 20260902090024 | 25 | 322 | 0.0 | 0.0 | 0.00 | 0.03 | 0.00 | 94 | 1015.7 |
| 20260902085523 | 25 | 322 | 0.0 | 0.0 | 0.00 | 0.03 | 0.00 | 94 | 1015.6 |
| 20260902085025 | 25 | 322 | 0.0 | 0.0 | 0.00 | 0.03 | 0.00 | 94 | 1015.6 |
| 20260902084522 | 25 | 323 | 0.0 | 0.0 | 0.00 | 0.03 | 0.00 | 94 | 1015.7 |
| 20260902084024 | 25 | 323 | 0.0 | 0.0 | 0.00 | 0.03 | 0.00 | 94 | 1015.7 |
| 20260902083520 | 25 | 323 | 0.0 | 0.0 | 0.00 | 0.03 | 0.00 | 94 | 1015.8 |
| 20260902083018 | 25 | 323 | 0.0 | 0.0 | 0.00 | 0.03 | 0.00 | 94 | 1015.8 |
| 20260902082522 | 25 | 323 | 0.0 | 0.0 | 0.00 | 0.03 | 0.00 | 94 | 1015.8 |
| 20260902082020 | 25 | 323 | 0.0 | 0.0 | 0.00 | 0.03 | 0.00 | 94 | 1015.9 |
| 20260902081517 | 25 | 323 | 0.0 | 0.0 | 0.00 | 0.03 | 0.00 | 94 | 1015.9 |
| 20260902081017 | 25 | 323 | 0.0 | 0.0 | 0.00 | 0.03 | 0.00 | 94 | 1016.0 |
| 20260902080516 | 25 | 323 | 0.0 | 0.0 | 0.00 | 0.03 | 0.00 | 94 | 1015.8 |
| 20260902080016 | 25 | 323 | 0.0 | 0.0 | 0.00 | 0.03 | 0.00 | 94 | 1015.9 |
| 20260902075516 | 25 | 323 | 0.0 | 0.0 | 0.00 | 0.03 | 0.00 | 94 | 1015.9 |
| 20260902075014 | 25 | 323 | 0.0 | 0.0 | 0.00 | 0.03 | 0.00 | 94 | 1015.9 |
| 20260902074514 | 25 | 323 | 0.0 | 0.0 | 0.00 | 0.03 | 0.00 | 94 | 1015.8 |
| 20260902074014 | 25 | 323 | 0.0 | 0.0 | 0.00 | 0.03 | 0.00 | 94 | 1015.9 |
| 20260902073512 | 25 | 323 | 0.0 | 0.0 | 0.00 | 0.03 | 0.00 | 94 | 1015.8 |
| 20260902073011 | 25 | 323 | 0.0 | 0.0 | 0.00 | 0.03 | 0.00 | 94 | 1015.8 |
| 20260902072510 | 25 | 323 | 0.0 | 0.0 | 0.00 | 0.03 | 0.00 | 94 | 1015.9 |
| 20260902072013 | 25 | 323 | 0.0 | 0.0 | 0.00 | 0.03 | 0.00 | 94 | 1016.0 |
| 20260902071509 | 25 | 323 | 0.0 | 0.0 | 0.00 | 0.03 | 0.00 | 94 | 1016.0 |
| 20260902071009 | 25 | 323 | 0.0 | 0.0 | 0.00 | 0.03 | 0.00 | 94 | 1015.9 |
| 20260902070509 | 25 | 323 | 0.0 | 0.0 | 0.00 | 0.03 | 0.00 | 94 | 1015.9 |
| 20260902070009 | 25 | 323 | 0.0 | 0.0 | 0.00 | 0.03 | 0.00 | 94 | 1015.9 |
| 20260902065512 | 25 | 323 | 0.0 | 0.0 | 0.00 | 0.03 | 0.00 | 94 | 1015.8 |
| 20260902065009 | 25 | 323 | 0.0 | 0.0 | 0.00 | 0.03 | 0.00 | 94 | 1015.8 |
| 20260902064506 | 25 | 323 | 0.0 | 0.0 | 0.00 | 0.03 | 0.00 | 94 | 1015.9 |
| 20260902064006 | 25 | 323 | 0.0 | 0.0 | 0.00 | 0.03 | 0.00 | 94 | 1015.8 |
| 20260902063508 | 25 | 323 | 0.0 | 0.0 | 0.00 | 0.03 | 0.00 | 94 | 1015.7 |
| 20260902063004 | 25 | 323 | 0.0 | 0.0 | 0.00 | 0.03 | 0.00 | 94 | 1015.8 |
| 20260902062505 | 25 | 323 | 0.0 | 0.0 | 0.00 | 0.03 | 0.00 | 94 | 1015.8 |
| 20260902062003 | 25 | 323 | 0.0 | 0.0 | 0.00 | 0.03 | 0.00 | 94 | 1015.8 |
| 20260902061502 | 25 | 323 | 0.0 | 0.0 | 0.00 | 0.03 | 0.00 | 94 | 1015.7 |
| 20260902061001 | 25 | 323 | 0.0 | 0.0 | 0.00 | 0.03 | 0.00 | 94 | 1015.7 |
| 20260902060600 | 25 | 323 | 0.0 | 0.0 | 0.00 | 0.03 | 0.00 | 94 | 1015.7 |
| 20260902060112 | 25 | 323 | 0.0 | 0.0 | 0.00 | 0.03 | 0.00 | 93 | 1015.7 |
| 20260902055600 | 25 | 323 | 0.0 | 0.0 | 0.00 | 0.03 | 0.00 | 93 | 1015.8 |
| 20260902055058 | 25 | 323 | 0.0 | 0.0 | 0.00 | 0.03 | 0.00 | 93 | 1015.8 |
| 20260902054558 | 25 | 323 | 0.0 | 0.0 | 0.00 | 0.03 | 0.00 | 93 | 1015.8 |
| 20260902054057 | 25 | 323 | 0.0 | 0.0 | 0.00 | 0.03 | 0.00 | 93 | 1015.9 |
| 20260902053556 | 25 | 323 | 0.0 | 0.0 | 0.00 | 0.03 | 0.00 | 93 | 1016.0 |
| 20260902053059 | 25 | 323 | 0.0 | 0.0 | 0.00 | 0.03 | 0.00 | 93 | 1015.8 |
| 20260902052556 | 25 | 323 | 0.0 | 0.0 | 0.00 | 0.03 | 0.00 | 93 | 1015.9 |
| 20260902052052 | 25 | 323 | 0.0 | 0.0 | 0.00 | 0.03 | 0.00 | 93 | 1015.9 |
| 20260902051553 | 25 | 323 | 0.0 | 0.0 | 0.00 | 0.03 | 0.00 | 93 | 1016.0 |
| 20260902051052 | 25 | 323 | 0.0 | 0.0 | 0.00 | 0.03 | 0.00 | 93 | 1016.0 |
| 20260902050551 | 25 | 323 | 0.0 | 0.0 | 0.00 | 0.03 | 0.00 | 93 | 1016.0 |
| 20260902050050 | 25 | 323 | 0.0 | 0.0 | 0.00 | 0.03 | 0.00 | 93 | 1016.0 |
| 20260902045549 | 25 | 323 | 0.0 | 0.0 | 0.00 | 0.03 | 0.00 | 93 | 1015.9 |
| 20260902045047 | 25 | 323 | 0.0 | 0.0 | 0.00 | 0.03 | 0.00 | 93 | 1016.1 |
| 20260902044547 | 25 | 323 | 0.0 | 0.0 | 0.00 | 0.03 | 0.00 | 92 | 1016.1 |
| 20260902044145 | 25 | 323 | 0.0 | 0.0 | 0.00 | 0.03 | 0.00 | 92 | 1016.1 |
| 20260902043544 | 25 | 323 | 0.0 | 0.0 | 0.00 | 0.03 | 0.00 | 92 | 1016.1 |
| 20260902043042 | 25 | 323 | 0.0 | 0.0 | 0.00 | 0.03 | 0.00 | 92 | 1016.2 |
| 20260902042542 | 25 | 323 | 0.0 | 0.0 | 0.00 | 0.03 | 0.00 | 92 | 1016.2 |
| 20260902042042 | 26 | 323 | 0.0 | 0.0 | 0.00 | 0.03 | 0.00 | 92 | 1016.2 |
| 20260902041540 | 26 | 323 | 0.0 | 0.0 | 0.00 | 0.03 | 0.00 | 92 | 1016.2 |
| 20260902041039 | 26 | 323 | 0.0 | 0.0 | 0.00 | 0.03 | 0.00 | 92 | 1016.3 |
| 20260902040538 | 26 | 323 | 0.0 | 0.0 | 0.00 | 0.03 | 0.00 | 92 | 1016.3 |
| 20260902040037 | 26 | 323 | 0.0 | 0.0 | 0.00 | 0.03 | 0.00 | 92 | 1016.3 |
| 20260902035536 | 26 | 323 | 0.0 | 0.0 | 0.00 | 0.03 | 0.03 | 92 | 1016.3 |
| 20260902035036 | 26 | 323 | 0.0 | 0.0 | 0.00 | 0.03 | 0.03 | 92 | 1016.3 |
| 20260902034544 | 26 | 323 | 0.0 | 0.0 | 0.00 | 0.03 | 0.03 | 92 | 1016.4 |
| 20260902034036 | 26 | 323 | 0.0 | 0.0 | 0.00 | 0.03 | 0.03 | 92 | 1016.4 |
| 20260902033534 | 26 | 323 | 0.0 | 0.0 | 0.00 | 0.03 | 0.03 | 91 | 1016.5 |
| 20260902033051 | 26 | 323 | 0.0 | 0.0 | 0.00 | 0.03 | 0.03 | 91 | 1016.5 |
| 20260902032532 | 26 | 323 | 0.0 | 0.0 | 0.00 | 0.03 | 0.03 | 91 | 1016.5 |
| 20260902032033 | 26 | 323 | 0.0 | 0.0 | 0.00 | 0.03 | 0.03 | 91 | 1016.5 |
| 20260902031531 | 26 | 323 | 0.0 | 0.0 | 0.00 | 0.03 | 0.03 | 91 | 1016.7 |
| 20260902031031 | 26 | 323 | 0.0 | 0.0 | 0.00 | 0.03 | 0.03 | 91 | 1016.8 |
| 20260902030530 | 26 | 323 | 0.0 | 0.0 | 0.00 | 0.03 | 0.03 | 91 | 1016.7 |
| 20260902030030 | 26 | 323 | 0.0 | 0.0 | 0.00 | 0.03 | 0.03 | 91 | 1016.9 |
| 20260902025532 | 26 | 323 | 0.0 | 0.0 | 0.00 | 0.03 | 0.03 | 91 | 1016.9 |
| 20260902025030 | 26 | 323 | 0.0 | 0.0 | 0.00 | 0.03 | 0.03 | 91 | 1016.8 |
| 20260902024527 | 26 | 323 | 0.0 | 0.0 | 0.00 | 0.03 | 0.03 | 91 | 1016.8 |
| 20260902024027 | 26 | 323 | 0.0 | 0.0 | 0.00 | 0.03 | 0.03 | 90 | 1016.8 |
| 20260902023526 | 26 | 323 | 0.0 | 0.0 | 0.00 | 0.03 | 0.03 | 90 | 1016.8 |
| 20260902023026 | 26 | 323 | 0.0 | 0.0 | 0.00 | 0.03 | 0.03 | 90 | 1016.9 |
| 20260902022524 | 26 | 323 | 0.0 | 0.0 | 0.00 | 0.03 | 0.03 | 90 | 1017.0 |
| 20260902022024 | 26 | 323 | 0.0 | 0.0 | 0.00 | 0.03 | 0.03 | 90 | 1017.0 |
| 20260902021526 | 26 | 323 | 0.0 | 0.0 | 0.00 | 0.03 | 0.03 | 90 | 1016.9 |
| 20260902021022 | 26 | 323 | 0.0 | 0.0 | 0.00 | 0.03 | 0.03 | 90 | 1016.8 |
| 20260902020521 | 26 | 323 | 0.0 | 0.0 | 0.00 | 0.03 | 0.03 | 90 | 1016.8 |
| 20260902020030 | 26 | 323 | 0.0 | 0.0 | 0.00 | 0.03 | 0.03 | 89 | 1016.9 |
| 20260902015520 | 26 | 323 | 0.0 | 0.0 | 0.00 | 0.03 | 0.03 | 89 | 1017.0 |
| 20260902015019 | 26 | 323 | 0.0 | 0.0 | 0.00 | 0.03 | 0.03 | 89 | 1016.8 |
| 20260902014522 | 26 | 323 | 0.0 | 0.0 | 0.00 | 0.03 | 0.03 | 89 | 1016.7 |
| 20260902014018 | 26 | 323 | 0.0 | 0.0 | 0.00 | 0.03 | 0.03 | 89 | 1016.7 |
| 20260902013518 | 26 | 323 | 0.0 | 0.0 | 0.00 | 0.03 | 0.03 | 89 | 1016.6 |
| 20260902013018 | 26 | 323 | 0.0 | 0.0 | 0.00 | 0.03 | 0.03 | 89 | 1016.6 |
| 20260902012517 | 26 | 323 | 0.0 | 0.0 | 0.00 | 0.03 | 0.03 | 88 | 1016.6 |
| 20260902012019 | 26 | 323 | 0.0 | 0.0 | 0.00 | 0.03 | 0.03 | 88 | 1016.6 |
| 20260902011515 | 26 | 323 | 0.0 | 0.0 | 0.00 | 0.03 | 0.03 | 88 | 1016.6 |
| 20260902011015 | 26 | 323 | 0.0 | 0.0 | 0.00 | 0.03 | 0.03 | 88 | 1016.6 |
| 20260902010513 | 26 | 323 | 0.0 | 1.6 | 0.00 | 0.03 | 0.03 | 88 | 1016.5 |
| 20260902010014 | 27 | 297 | 0.0 | 1.6 | 0.00 | 0.03 | 0.03 | 87 | 1016.5 |
| 20260902005616 | 27 | 297 | 0.0 | 0.0 | 0.00 | 0.03 | 0.03 | 87 | 1016.5 |
| 20260902005013 | 27 | 297 | 0.0 | 0.0 | 0.00 | 0.03 | 0.03 | 87 | 1016.6 |
| 20260902004518 | 27 | 297 | 0.0 | 0.0 | 0.00 | 0.03 | 0.03 | 87 | 1016.4 |
| 20260902004011 | 27 | 297 | 0.0 | 0.0 | 0.00 | 0.03 | 0.03 | 87 | 1016.5 |
| 20260902003512 | 27 | 297 | 0.0 | 0.0 | 0.00 | 0.03 | 0.03 | 86 | 1016.4 |
| 20260902003011 | 27 | 224 | 0.0 | 1.6 | 0.00 | 0.03 | 0.03 | 86 | 1016.3 |
| 20260902002510 | 27 | 224 | 0.0 | 1.6 | 0.00 | 0.03 | 0.03 | 86 | 1016.3 |
| 20260902002009 | 27 | 224 | 0.0 | 1.6 | 0.00 | 0.03 | 0.03 | 86 | 1016.2 |
| 20260902001509 | 27 | 281 | 0.0 | 1.6 | 0.00 | 0.03 | 0.03 | 86 | 1016.4 |
| 20260902001008 | 27 | 281 | 0.0 | 0.0 | 0.00 | 0.03 | 0.03 | 85 | 1016.4 |
| 20260902000509 | 27 | 281 | 0.0 | 0.0 | 0.00 | 0.03 | 0.03 | 85 | 1016.3 |
| 20260902000013 | 27 | 281 | 0.0 | 0.0 | 0.00 | 0.03 | 0.03 | 85 | 1016.3 |
| 20260901235507 | 27 | 281 | 0.0 | 1.6 | 0.00 | 0.03 | 0.03 | 85 | 1016.4 |